Observations for Trim Market St
| Time | AQI | Temp °C | Hum % | Pres Pa | CO μg/m³ | H₂S μg/m³ | NO μg/m³ | NO₂ μg/m³ | O₃ μg/m³ | SO₂ μg/m³ | PM1 μg/m³ | PM2.5 μg/m³ | PM10 μg/m³ |
|---|---|---|---|---|---|---|---|---|---|---|---|---|---|
| Thursday 27 August 2026 | |||||||||||||
| 03:36 | 2 | 16.8 | 85 | 2,147,483,647 | 0.31 | 0 | 2.26 | 4.47 | 55.1 | 0 | 13.54 | 13.96 | 19.89 |
| 03:35 | 2 | 16.8 | 85 | 2,147,483,647 | 0.31 | 0 | 2.25 | 5.37 | 55.21 | 0 | 13.54 | 14.42 | 20.96 |
| 03:32 | 2 | 16.8 | 85 | 2,147,483,647 | 0.31 | 0 | 2.24 | 4.83 | 53.78 | 0 | 13.54 | 14.41 | 22.55 |
| 03:30 | 2 | 16.8 | 85 | 2,147,483,647 | 0.3 | 0 | 2.22 | 4.95 | 54.57 | 0 | 12.83 | 13.02 | 18.26 |
| 03:29 | 2 | 16.8 | 85 | 2,147,483,647 | 0.31 | 0 | 2.21 | 5.85 | 51.91 | 0 | 13.54 | 13.96 | 19.35 |
| 03:28 | 2 | 16.8 | 85 | 2,147,483,647 | 0.31 | 0 | 2.16 | 5.73 | 53.76 | 0 | 12.83 | 13.96 | 19.89 |
| 03:22 | 2 | 16.8 | 85 | 2,147,483,647 | 0.29 | 0 | 2.16 | 4.04 | 53.05 | 0 | 11.4 | 13.49 | 18.81 |
| 03:21 | 2 | 16.7 | 85 | 2,147,483,647 | 0.3 | 0 | 2.17 | 5.88 | 56.98 | 0 | 13.54 | 13.96 | 21.5 |
| 03:19 | 2 | 16.7 | 85 | 2,147,483,647 | 0.31 | 0 | 2.24 | 6.11 | 57.07 | 0 | 12.83 | 14.89 | 20.42 |
| 03:17 | 2 | 16.7 | 85 | 2,147,483,647 | 0.31 | 0 | 2.26 | 4.49 | 52.98 | 0 | 12.11 | 13.49 | 19.35 |
| 03:09 | 2 | 16.7 | 85 | 2,147,483,647 | 0.29 | 0 | 2.21 | 5.83 | 56.37 | 0 | 12.11 | 13.32 | 16.67 |
| 03:08 | 2 | 16.7 | 85 | 2,147,483,647 | 0.3 | 0 | 2.21 | 5.6 | 55.5 | 0 | 12.83 | 13.96 | 19.36 |
| 03:07 | 2 | 16.7 | 85 | 2,147,483,647 | 0.29 | 0 | 2.21 | 6.86 | 56.3 | 0 | 13.54 | 13.96 | 19.36 |
| 03:06 | 2 | 16.6 | 85 | 2,147,483,647 | 0.31 | 0 | 2.23 | 6.25 | 54.54 | 0 | 12.83 | 14.9 | 20.99 |
| 03:05 | 2 | 16.7 | 85 | 2,147,483,647 | 0.28 | 0 | 2.21 | 12.18 | 60.06 | 0 | 12.83 | 13.97 | 20.45 |
| 03:04 | 2 | 16.6 | 85 | 2,147,483,647 | 0.31 | 0 | 2.25 | 6.76 | 57.53 | 0 | 12.11 | 13.04 | 17.76 |
| 03:03 | 2 | 16.6 | 85 | 2,147,483,647 | 0.3 | 0 | 2.2 | 8.13 | 54.35 | 0 | 12.11 | 13.51 | 19.37 |
| 03:02 | 2 | 16.6 | 85 | 2,147,483,647 | 0.3 | 0 | 2.19 | 6.19 | 53.89 | 0 | 13.54 | 15.38 | 23.7 |
| 03:01 | 2 | 16.6 | 85 | 2,147,483,647 | 0.3 | 0 | 2.18 | 6.26 | 57.91 | 0 | 12.83 | 13.51 | 18.3 |
| 03:00 | 2 | 16.6 | 85 | 2,147,483,647 | 0.29 | 0 | 2.18 | 6.3 | 55.53 | 0 | 12.83 | 13.52 | 18.85 |